When you browse on this site, cookies collect data to enhance your experience and personalize the content and advertising you see.
Visit our Privacy Policy to learn more. By continuing to use the site, you agree to this use of cookies and data.
  • In Lithuania
  • List of Countries
  • For 7 days
  • Water Temperature
  • Weather Map
  • Weather Widgets
  • user-avatar
    Login

    Hourly Weather Boa Vista

    Today, 17 September, Tuesday

    Time Temperature Precipitation Wind Pressure Humidity
    00:00 +25°C° 0.2 mm 0 mps 752 mmHg 85%
    01:00 +25°C° 0.2 mm 0 mps 751 mmHg 87%
    02:00 +25°C° 0.2 mm 0 mps 751 mmHg 88%
    03:00 +24°C° 0.2 mm 0 mps 751 mmHg 89%
    04:00 +24°C° 0.2 mm 0 mps 751 mmHg 90%
    05:00 +26°C° 0.2 mm 1 mps 751 mmHg 91%
    06:00 +25°C° 0.1 mm 0 mps 752 mmHg 88%
    07:00 +26°C° 0.1 mm 0 mps 753 mmHg 84%
    08:00 +27°C° 0.1 mm 0 mps 754 mmHg 81%
    09:00 +29°C° 1.5 mm 0 mps 753 mmHg 74%
    10:00 +30°C° 1.5 mm 0 mps 753 mmHg 66%
    11:00 +32°C° 1.5 mm 0 mps 753 mmHg 59%
    12:00 +35°C° 0.2 mm 1 mps 752 mmHg 55%
    13:00 +35°C° 0.2 mm 1 mps 751 mmHg 52%
    14:00 +36°C° 0.2 mm 1 mps 751 mmHg 48%
    15:00 +35°C° 0 mm 1 mps 750 mmHg 52%
    16:00 +35°C° 0 mm 1 mps 750 mmHg 56%
    17:00 +34°C° 0 mm 1 mps 750 mmHg 61%
    18:00 +33°C° 0 mm 1 mps 750 mmHg 64%
    19:00 +31°C° 0 mm 1 mps 750 mmHg 68%
    20:00 +30°C° 0 mm 1 mps 750 mmHg 71%
    21:00 +29°C° 0 mm 1 mps 751 mmHg 73%
    22:00 +29°C° 0 mm 1 mps 751 mmHg 75%
    23:00 +27°C° 0 mm 0 mps 751 mmHg 76%

    Tomorrow, 18 September, Wednesday

    Time Temperature Precipitation Wind Pressure Humidity
    00:00 +26°C° 0.3 mm 0 mps 751 mmHg 79%
    01:00 +28°C° 0.3 mm 1 mps 750 mmHg 81%
    02:00 +27°C° 0.3 mm 1 mps 750 mmHg 84%
    03:00 +27°C° 0 mm 1 mps 750 mmHg 85%
    04:00 +27°C° 0 mm 1 mps 750 mmHg 87%
    05:00 +27°C° 0 mm 1 mps 750 mmHg 88%
    06:00 +27°C° 0.2 mm 1 mps 751 mmHg 86%
    07:00 +28°C° 0.2 mm 1 mps 752 mmHg 83%
    08:00 +29°C° 0.2 mm 2 mps 752 mmHg 81%
    09:00 +31°C° 0 mm 2 mps 752 mmHg 73%
    10:00 +34°C° 0 mm 2 mps 752 mmHg 65%
    11:00 +36°C° 0 mm 2 mps 751 mmHg 57%
    12:00 +36°C° 1 mm 2 mps 751 mmHg 57%
    13:00 +36°C° 1 mm 2 mps 750 mmHg 57%
    14:00 +36°C° 1 mm 3 mps 749 mmHg 57%
    15:00 +36°C° 0.4 mm 2 mps 749 mmHg 59%
    16:00 +35°C° 0.4 mm 2 mps 749 mmHg 61%
    17:00 +35°C° 0.4 mm 2 mps 749 mmHg 63%
    18:00 +32°C° 0 mm 1 mps 749 mmHg 67%
    19:00 +31°C° 0 mm 1 mps 749 mmHg 70%
    20:00 +29°C° 0 mm 1 mps 749 mmHg 74%
    21:00 +29°C° 0.2 mm 1 mps 750 mmHg 76%
    22:00 +29°C° 0.2 mm 1 mps 750 mmHg 78%
    23:00 +28°C° 0.2 mm 1 mps 750 mmHg 80%

    Day after tomorrow, 19 September, Thursday

    Time Temperature Precipitation Wind Pressure Humidity
    00:00 +28°C° 0 mm 1 mps 750 mmHg 81%
    01:00 +28°C° 0 mm 1 mps 749 mmHg 82%
    02:00 +27°C° 0 mm 1 mps 749 mmHg 83%
    03:00 +27°C° 0.1 mm 1 mps 749 mmHg 84%
    04:00 +27°C° 0.1 mm 1 mps 750 mmHg 84%
    05:00 +27°C° 0.1 mm 1 mps 750 mmHg 85%
    06:00 +28°C° 0 mm 2 mps 751 mmHg 81%
    07:00 +29°C° 0 mm 2 mps 751 mmHg 77%
    08:00 +30°C° 0 mm 3 mps 752 mmHg 73%
    09:00 +33°C° 0 mm 3 mps 751 mmHg 67%
    10:00 +35°C° 0 mm 3 mps 751 mmHg 60%
    11:00 +36°C° 0 mm 4 mps 751 mmHg 54%
    12:00 +36°C° 0.1 mm 3 mps 750 mmHg 53%
    13:00 +36°C° 0.1 mm 3 mps 750 mmHg 53%
    14:00 +36°C° 0.1 mm 2 mps 749 mmHg 53%
    15:00 +36°C° 0 mm 2 mps 749 mmHg 54%
    16:00 +35°C° 0 mm 1 mps 749 mmHg 54%
    17:00 +36°C° 0 mm 1 mps 749 mmHg 55%
    18:00 +34°C° 0 mm 1 mps 749 mmHg 59%
    19:00 +32°C° 0 mm 1 mps 749 mmHg 64%
    20:00 +30°C° 0 mm 1 mps 750 mmHg 68%
    21:00 +30°C° 0.1 mm 1 mps 750 mmHg 70%
    22:00 +29°C° 0.1 mm 1 mps 750 mmHg 72%
    23:00 +29°C° 0.1 mm 1 mps 750 mmHg 74%

    20 September, Friday

    Time Temperature Precipitation Wind Pressure Humidity
    00:00 +29°C° 0 mm 1 mps 750 mmHg 76%
    01:00 +28°C° 0 mm 1 mps 749 mmHg 78%
    02:00 +28°C° 0 mm 1 mps 749 mmHg 81%
    03:00 +27°C° 0.1 mm 1 mps 750 mmHg 82%
    04:00 +27°C° 0.1 mm 1 mps 750 mmHg 84%
    05:00 +27°C° 0.1 mm 1 mps 750 mmHg 86%
    06:00 +28°C° 0 mm 2 mps 751 mmHg 82%
    07:00 +29°C° 0 mm 2 mps 752 mmHg 77%
    08:00 +31°C° 0 mm 3 mps 752 mmHg 73%
    09:00 +33°C° 0 mm 4 mps 752 mmHg 66%
    10:00 +35°C° 0 mm 4 mps 752 mmHg 59%
    11:00 +36°C° 0 mm 5 mps 752 mmHg 52%
    12:00 +37°C° 0 mm 4 mps 752 mmHg 49%
    13:00 +38°C° 0 mm 4 mps 751 mmHg 46%
    14:00 +38°C° 0 mm 3 mps 750 mmHg 43%
    15:00 +38°C° 0 mm 3 mps 750 mmHg 46%
    16:00 +37°C° 0 mm 3 mps 750 mmHg 49%
    17:00 +36°C° 0 mm 2 mps 750 mmHg 52%
    18:00 +35°C° 0 mm 2 mps 750 mmHg 55%
    19:00 +32°C° 0 mm 2 mps 750 mmHg 57%
    20:00 +31°C° 0 mm 2 mps 750 mmHg 60%
    21:00 +30°C° 0 mm 2 mps 751 mmHg 60%
    22:00 +30°C° 0 mm 2 mps 751 mmHg 61%
    23:00 +30°C° 0 mm 2 mps 751 mmHg 62%

    21 September, Saturday

    Time Temperature Precipitation Wind Pressure Humidity
    00:00 +29°C° 0 mm 2 mps 751 mmHg 63%
    01:00 +29°C° 0 mm 2 mps 751 mmHg 65%
    02:00 +28°C° 0 mm 2 mps 750 mmHg 67%
    03:00 +28°C° 0 mm 2 mps 750 mmHg 69%
    04:00 +27°C° 0 mm 2 mps 751 mmHg 72%
    05:00 +27°C° 0 mm 3 mps 751 mmHg 74%
    06:00 +28°C° 0 mm 3 mps 752 mmHg 72%
    07:00 +29°C° 0 mm 4 mps 752 mmHg 69%
    08:00 +30°C° 0 mm 5 mps 753 mmHg 67%
    09:00 +33°C° 0 mm 5 mps 753 mmHg 62%
    10:00 +34°C° 0 mm 5 mps 753 mmHg 58%
    11:00 +36°C° 0 mm 5 mps 753 mmHg 53%
    12:00 +36°C° 0 mm 4 mps 752 mmHg 53%
    13:00 +36°C° 0 mm 3 mps 751 mmHg 53%
    14:00 +36°C° 0 mm 2 mps 750 mmHg 54%
    15:00 +36°C° 0 mm 2 mps 750 mmHg 54%
    16:00 +36°C° 0 mm 2 mps 750 mmHg 55%
    17:00 +35°C° 0 mm 1 mps 749 mmHg 55%
    18:00 +34°C° 0.3 mm 3 mps 750 mmHg 61%
    19:00 +32°C° 0.3 mm 4 mps 750 mmHg 66%
    20:00 +29°C° 0.3 mm 5 mps 750 mmHg 72%
    21:00 +28°C° 0.2 mm 5 mps 751 mmHg 76%
    22:00 +28°C° 0.2 mm 4 mps 751 mmHg 79%
    23:00 +27°C° 0.2 mm 4 mps 752 mmHg 83%

    22 September, Sunday

    Time Temperature Precipitation Wind Pressure Humidity
    00:00 +27°C° 0 mm 4 mps 752 mmHg 84%
    01:00 +26°C° 0 mm 3 mps 751 mmHg 84%
    02:00 +26°C° 0 mm 2 mps 751 mmHg 85%
    03:00 +26°C° 0 mm 2 mps 751 mmHg 86%
    04:00 +26°C° 0 mm 2 mps 751 mmHg 86%
    05:00 +26°C° 0 mm 1 mps 751 mmHg 87%
    06:00 +26°C° 0 mm 2 mps 752 mmHg 84%
    07:00 +27°C° 0 mm 2 mps 752 mmHg 81%
    08:00 +28°C° 0 mm 2 mps 753 mmHg 77%
    09:00 +30°C° 0 mm 2 mps 753 mmHg 71%
    10:00 +31°C° 0 mm 2 mps 753 mmHg 64%
    11:00 +34°C° 0 mm 2 mps 753 mmHg 57%
    12:00 +35°C° 0 mm 2 mps 752 mmHg 54%
    13:00 +36°C° 0 mm 2 mps 751 mmHg 50%
    14:00 +36°C° 0 mm 1 mps 751 mmHg 47%
    15:00 +37°C° 0 mm 2 mps 750 mmHg 50%
    16:00 +36°C° 0 mm 2 mps 750 mmHg 52%
    17:00 +36°C° 0 mm 2 mps 749 mmHg 54%
    18:00 +34°C° 0.3 mm 2 mps 750 mmHg 60%
    19:00 +31°C° 0.3 mm 2 mps 750 mmHg 66%
    20:00 +29°C° 0.3 mm 2 mps 751 mmHg 72%
    21:00 +29°C° 0.5 mm 2 mps 751 mmHg 75%
    22:00 +28°C° 0.5 mm 1 mps 752 mmHg 78%
    23:00 +27°C° 0.5 mm 1 mps 752 mmHg 82%
    Show more